Probability
0 0 0 0 0 0 0 0 0 0 0 0 0 0 0 0 0 0 0 0 0 0 0 0 0 0 0 0 0 0 0 0 0 0 0 0 0 0 0 0 0 0 0
0 0 0 0 0 0 0 0 0 0 0 0 0 0 0 0 0 0 0 0 0 0 0 0 0 0 0 0 0 0 0 0 0 0 0 0 0 0 0 0 0 0 0
0 0 0 0 0 0 0 0 0 0 0 0 0 0 0 0 0 0 0 0 0 0 0 0 0 0 0 0 0 0 0 0 0 0 0 0 0 0 0 0 0 0 0
0 0 0 0 0 0 0 0 0 0 0 0 0 0 0 0 0 0 0 0 0 0 0 0 0 0 0 0 0 0 0 0 0 0 0 0 0 0 0 0 0 0 0
0 0 0 0 0 0 0 0 0 0 0 0 0 0 0 0 0 0 0 0 0 0 0 0 0 0 0 0 0 0 0 0 0 0 0 0 0 0 0 0 0 0 0
0 0 0 0 0 0 0 0 0 0 0 0 0 0 0 0 0 0 0 0 0 0 0 0 0 0 0 0 0 0 0 0 0 0 0 0 0 0 0 0 0 0 0
0 0 0 0 0 0 0 0 0 0 0 0 0 0 0 0 0 0 0 0 0 0 0 0 0 0 0 0 0 0 0 0 0 0 0 0 0 0 0 0 0 0 0
0 0 0 0 0 0 0 0 0 0 0 0 0 0 0 0 0 0 0 0 0 0 0 0 0 0 0 0 0 0 0 0 0 0 0 0 0 0 0 0 0 0 0
0 0 0 0 0 0 0 0 0 0 0 0 0 0 0 0 0 0 0 0 0 0 0 0 0 0 0 0 0 0 0 0 0 0 0 0 0 0 0 0 0 0 0
0 0 0 0 0 0 0 0 0 0 0 0 0 0 0 0 0 0 0 0 0 0 0 0 0 0 0 0 0 0 0 0 0 0 0 0 0 0 0 0 0 0 0
0 0 0 0 0 0 0 0 0 0 0 0 0 0 0 0 0 0 0 0 0 0 0 0 0 0 0 0 0 0 0 0 0 0 0 0 0 0 0 0 0 0 0
0 0 0 0 0 0 0 0 0 0 0 0 0 0 0 0 0 0 0 0 0 0 0 0 0 0 0 0 0 0 0 0 0 0 0 0 0 0 0 0 0 0 0
0 0 0 0 0 0 0 0 0 0 0 0 0 0 0 0 0 0 0 0 0 0 0 0 0 0 0 0 0 0 0 0 0 0 0 0 0 0 0 0 0 0 0
0 0 0 0 0 0 0 0 0 0 0 0 0 0 0 0 0 0 0 0 0 0 0 0 0 0 0 0 0 0 0 0 0 0 0 0 0 0 0 0 0 0 0
0 0 0 0 0 0 0 0 0 0 0 0 0 0 0 0 0 0 0 0 0 0 0 0 0 0 0 0 0 0 0 0 0 0 0 0 0 0 0 0 0 0 0
0 0 0 0 0 0 0 0 0 0 0 0 0 0 0 0 0 0 0 0 0 0 0 0 0 0 0 0 0 0 0 0 0 0 0 0 0 0 0 0 0 0 0
0 0 0 0 0 0 0 0 0 0 0 0 0 0 0 0 0 0 0 0 0 0 0 0 0 0 0 0 0 0 0 0 0 0 0 0 0 0 0 0 0 0 0
0 0 0 0 0 0 0 0 0 0 0 0 0 0 0 0 0 0 0 0 0 0 0 0 0 0 0 0 0 0 0 0 0 0 0 0 0 0 0 0 0 0 0
0 0 0 0 0 0 0 0 0 0 0 0 0 0 0 0 0 0 0 0 0 0 0 0 0 0 0 0 0 0 0 0 0 0 0 0 0 0 0 0 0 0 0
0 0 0 0 0 0 0 0 0 0 0 0 0 0 0 0 0 0 0 0 0 0 0 0 0 0 0 0 0 0 0 0 0 0 0 0 0 0 0 0 0 0 0
0 0 0 0 0 0 0 0 0 0 0 0 0 0 0 0 0 0 0 0 0 0 0 0 0 0 0 0 0 0 0 0 0 0 0 0 0 0 0 0 0 0 0
0 0 0 0 0 0 0 0 0 0 0 0 0 0 0 0 0 0 0 0 0 0 0 0 0 0 0 0 0 0 0 0 0 0 0 0 0 0 0 0 0 0 0
0 0 0 0 0 0 0 0 0 0 0 0 0 0 0 0 0 0 0 0 0 0 0 0 0 0 0 0 0 0 0 0 0 0 0 0 0 0 0 0 0 0 0
0 0 0 0 0 0 0 0 0 0 0 0 0 0 0 0 0 0 0 0 0 0 0 0 0 0 0 0 0 0 0 0 0 0 0 0 0 0 0 0 0 0 0
0 0 0 0 0 0 0 0 0 0 0 0 0 0 0 0 0 0 0 0 0 0 0 0 0 0 0 0 0 0 0 0 0 0 0 0 0 0 0 0 0 0 0
0 0 0 0 0 0 0 0 0 0 0 0 0 0 0 0 0 0 0 0 0 0 0 0 0 0 0 0 0 0 0 0 0 0 0 0 0 0 0 0 0 0 0
Wind_Speed
1 1 1 1 1 1 1 1 0 1 1 1 1 2 2 2 2 1 1 2 2 2 2 2 3 3 2 2 2 2 3 4 7 7 5 4 5 6 7 6 7 7 7
1 1 1 1 0 1 1 1 1 1 1 1 1 1 2 2 2 2 2 2 2 3 3 3 4 3 3 3 3 3 3 4 5 9 7 5 6 6 7 7 7 7 7
1 1 1 1 1 1 1 1 1 1 1 1 1 1 2 2 2 2 2 2 2 2 3 3 4 4 4 3 4 4 4 4 5 6 7 5 5 5 7 7 7 6 7
1 2 2 2 2 1 1 0 0 1 1 1 1 2 2 2 2 2 2 2 2 2 3 3 4 4 4 5 4 5 5 5 5 6 6 6 6 6 5 6 7 6 7
2 2 2 2 1 0 0 0 0 1 1 1 2 2 2 2 2 2 2 2 2 3 3 4 4 5 6 5 5 5 5 5 5 6 6 6 6 6 6 6 8 8 7
3 3 2 1 1 1 1 1 1 1 1 1 2 2 3 3 4 4 3 3 3 4 4 4 5 5 6 8 9 9 8 7 7 6 7 8 9 8 7 7 8 9 8
3 2 2 1 1 2 1 1 1 2 1 2 2 2 3 4 5 5 5 4 4 4 4 5 5 5 5 5 7 9 8 9 9 7 8 9 9 8 8 9 8 9 9
3 3 2 2 2 2 2 2 2 2 2 2 3 3 3 4 6 6 6 4 4 4 5 5 5 6 5 6 6 7 7 6 7 6 6 7 7 7 7 8 9 9 8
4 4 3 3 3 3 3 3 3 2 2 3 3 3 3 4 6 6 6 3 4 5 5 5 5 5 8 9 7 7 7 7 7 8 9 10 11 12 9 5 5 6 8
5 4 3 3 4 4 4 3 2 2 3 3 3 3 4 4 6 7 6 3 4 4 4 4 5 6 8 9 6 6 7 7 6 6 7 8 8 8 9 5 5 5 6
3 2 3 3 3 4 3 2 2 2 2 3 4 4 4 4 6 7 7 4 4 4 4 4 4 8 9 10 8 5 8 8 5 5 5 5 4 4 4 4 4 5 6
2 2 3 3 3 2 2 3 2 2 3 3 3 4 3 3 5 7 8 8 7 5 5 4 5 8 10 9 7 7 9 7 4 4 4 4 4 4 4 5 5 5 6
2 3 3 3 3 2 3 3 2 2 3 3 3 4 4 3 4 7 8 8 8 5 4 7 8 9 9 6 7 8 6 3 3 4 5 5 5 5 5 5 5 5 6
3 3 3 3 3 2 2 3 3 3 4 4 4 5 4 4 4 3 3 4 5 5 4 5 8 8 7 6 5 4 3 3 3 4 5 5 4 4 4 4 5 5 6
4 3 3 3 3 3 3 4 5 5 5 5 5 4 4 5 6 7 5 4 3 4 4 2 2 3 3 3 3 3 3 3 3 4 4 5 5 5 5 4 4 4 5
3 3 3 3 3 3 3 3 6 6 8 9 8 6 5 7 8 8 8 8 7 6 3 2 3 3 4 4 4 4 3 3 4 4 4 4 5 5 5 5 4 4 6
5 4 3 3 3 3 3 3 4 5 7 8 9 10 9 8 8 8 8 8 7 4 2 3 4 4 4 4 4 4 4 4 4 4 4 4 5 5 5 5 5 5 6
5 4 4 4 4 4 4 4 4 4 4 4 6 9 9 9 8 8 7 4 4 3 3 4 4 4 4 4 4 4 5 4 4 4 4 4 4 4 4 5 5 5 6
4 4 3 3 3 4 4 3 3 4 4 4 3 5 6 7 7 6 4 2 4 4 4 4 4 4 5 4 4 5 5 5 5 4 4 4 4 4 4 5 5 6 6
4 5 4 3 3 3 3 4 4 4 4 4 4 4 3 2 3 4 3 3 3 4 4 4 4 4 4 4 4 4 4 4 4 4 4 4 4 4 5 5 5 5 5
3 4 5 4 4 4 4 5 5 5 5 5 5 5 5 3 4 4 4 4 4 4 4 4 5 5 4 4 4 4 5 5 4 4 4 4 4 4 4 4 5 5 5
3 3 4 4 4 4 5 4 4 5 5 5 4 4 8 4 4 4 4 4 4 4 4 4 5 5 4 4 4 4 5 5 5 4 4 4 4 4 4 4 4 4 4
4 4 4 4 4 5 4 4 4 4 5 5 4 4 4 4 4 4 5 4 4 4 4 4 5 5 4 4 4 5 6 6 5 5 4 4 4 4 4 4 5 5 5
4 5 5 4 4 4 4 4 4 4 4 4 4 4 4 4 4 5 5 4 4 4 4 4 5 7 8 6 4 4 5 5 5 5 6 5 5 5 4 4 4 5 5
4 4 4 4 4 4 4 4 4 4 4 4 4 4 4 4 4 5 4 4 5 5 5 5 5 6 7 8 7 6 7 8 7 5 4 4 5 5 5 5 4 5 5
4 4 4 4 4 4 4 5 5 5 5 4 4 4 4 4 5 5 4 4 4 5 5 5 6 7 8 7 8 9 9 8 7 6 4 3 4 4 4 4 4 4 5
Wind_Direction
257 282 286 293 304 296 265 267 287 329 346 356 353 351 348 342 335 328 320 323 328 324 323 320 312 312 310 309 305 301 295 286 283 292 297 307 308 311 312 308 305 304 307
232 240 251 266 283 272 279 307 329 344 349 340 346 349 339 335 326 311 312 324 316 316 316 317 311 312 311 308 303 297 293 289 284 293 299 304 301 302 303 305 308 308 304
223 229 248 259 248 248 262 310 353 345 343 344 345 328 319 317 313 306 303 315 312 306 308 309 306 307 305 301 295 291 290 294 288 287 295 300 298 302 304 302 301 300 304
217 224 241 250 245 254 267 11 5 336 326 319 307 295 294 297 296 299 310 309 304 305 305 298 294 288 287 289 292 292 294 295 293 291 294 300 301 301 302 306 308 306 305
210 223 238 245 251 282 317 317 340 333 308 300 300 298 297 291 283 294 299 294 293 299 301 298 295 293 293 293 294 295 296 293 295 296 295 299 301 307 306 305 304 306 297
211 227 232 221 225 237 256 266 286 296 302 306 293 295 299 296 300 301 299 296 293 291 294 297 297 292 299 302 300 300 298 292 292 292 294 295 299 301 302 301 304 307 301
214 226 221 216 233 246 249 260 266 271 278 282 286 290 290 289 298 302 306 300 291 284 284 288 293 297 297 298 300 302 300 294 287 283 286 291 296 298 298 295 293 295 293
217 225 225 215 234 249 247 248 257 267 269 272 279 279 283 288 297 302 309 305 293 287 286 283 282 288 292 297 300 299 296 295 292 287 283 288 293 295 291 292 295 295 291
226 230 225 216 227 236 242 248 254 259 268 273 282 278 281 288 289 294 302 297 289 291 290 289 284 282 290 298 299 297 298 299 297 294 294 295 298 302 305 305 302 302 301
234 236 230 221 224 233 241 250 256 253 259 271 278 276 273 278 282 288 294 287 285 290 294 293 288 291 299 303 301 296 295 299 305 305 301 301 301 301 304 298 291 289 295
236 236 234 229 229 235 243 250 247 248 261 265 274 279 274 272 276 280 286 288 283 290 291 295 293 296 300 303 304 300 299 311 308 301 298 298 301 303 303 301 291 283 284
216 227 236 236 232 229 230 246 243 233 245 258 269 279 276 273 273 280 283 284 292 288 285 287 291 299 302 304 306 306 312 318 312 306 302 300 299 300 303 304 299 290 281
205 226 236 239 236 229 223 231 240 235 239 253 257 266 275 272 271 276 280 284 288 291 288 289 296 299 304 306 307 310 315 309 302 297 295 296 299 298 302 305 303 299 293
213 228 229 228 241 240 235 229 227 229 237 245 251 260 271 274 271 274 280 285 284 285 291 296 296 297 300 307 316 310 302 293 290 289 294 298 305 305 302 306 307 313 308
222 225 230 229 229 236 237 236 239 237 235 243 246 249 258 266 267 277 287 283 284 284 300 301 302 300 293 296 297 293 291 291 289 291 294 298 300 302 303 307 303 305 296
221 225 224 225 228 230 243 268 259 256 263 260 260 264 267 269 282 276 276 280 285 295 312 288 283 284 282 287 292 292 287 285 286 288 287 285 289 293 299 304 303 297 296
219 222 220 218 220 224 229 240 266 277 266 264 265 267 270 277 277 278 278 282 284 290 276 272 272 275 277 280 281 280 281 284 284 281 282 283 285 288 290 294 298 298 296
223 223 218 219 220 222 226 233 238 246 268 274 271 269 275 278 279 282 286 289 279 275 257 263 267 270 272 273 275 276 279 284 280 277 279 277 278 282 284 286 287 289 295
219 223 221 224 224 226 229 233 238 241 250 266 283 279 275 279 279 279 283 259 263 267 265 266 267 269 270 270 271 272 271 274 274 273 273 273 273 276 279 281 284 287 289
223 226 218 220 224 228 227 229 235 240 245 249 253 260 269 269 262 267 260 259 262 268 270 271 272 270 270 269 270 270 271 271 271 270 271 272 271 269 272 277 279 282 283
226 227 217 220 224 227 229 231 233 234 239 246 251 253 253 248 250 258 261 260 259 263 268 270 271 270 268 268 268 268 267 269 267 265 267 269 270 272 273 273 275 276 282
217 221 222 227 231 232 235 234 233 236 241 246 261 260 251 250 251 258 262 264 263 262 261 264 268 266 261 257 260 265 267 268 267 265 266 270 272 273 273 272 277 282 286
214 218 226 233 235 237 236 233 232 236 241 244 247 252 252 247 252 258 262 268 271 272 271 267 271 276 274 265 257 253 257 260 259 253 258 268 273 273 270 271 274 281 284
212 217 225 230 231 232 235 238 238 238 241 243 245 246 249 252 257 262 265 269 272 273 272 270 268 272 278 281 271 261 260 263 259 249 243 251 261 268 267 270 271 273 277
213 218 222 226 229 233 237 240 243 245 247 247 248 251 255 258 262 265 268 269 270 272 274 274 272 272 273 277 276 271 269 272 268 257 244 245 253 259 262 265 267 273 277
216 220 223 224 226 229 232 238 242 244 249 252 254 252 252 256 261 265 269 270 275 278 278 275 273 276 279 277 275 275 274 274 270 257 245 245 249 260 265 268 273 275 277